DW8847 Weather Reports


Display with metric or nautical units.
time (UTC)temp
F
wind
direction
speed
MPH
gust
MPH
rain 1hr
in
rain 24hr
in
rain mn
in
humidity
%
barometer
mb
20260507204015 54 36 0.0 0.0 0.00 0.35 0.35 88 1014.9
20260507203511 54 36 0.0 0.0 0.00 0.35 0.35 88 1014.8
20260507203017 54 36 0.0 0.0 0.00 0.35 0.35 88 1014.7
20260507202510 54 36 0.0 0.0 0.00 0.35 0.35 88 1014.8
20260507202009 54 36 0.0 0.0 0.00 0.35 0.35 88 1014.8
20260507201514 54 36 0.0 0.0 0.00 0.35 0.35 88 1014.7
20260507201012 54 36 0.0 2.0 0.00 0.35 0.35 87 1014.7
20260507200507 55 36 0.0 2.0 0.00 0.35 0.35 87 1014.6
20260507200016 55 36 0.0 2.0 0.00 0.35 0.35 87 1014.5
20260507195505 55 36 0.0 0.0 0.00 0.35 0.35 87 1014.5
20260507195007 56 36 0.0 0.0 0.00 0.35 0.35 87 1014.4
20260507194504 56 36 0.0 0.0 0.00 0.35 0.35 86 1014.4
20260507194003 56 36 0.0 0.0 0.00 0.35 0.35 86 1014.4
20260507193505 56 36 0.0 0.0 0.00 0.35 0.35 86 1014.3
20260507193004 56 36 0.0 0.0 0.00 0.35 0.35 85 1014.3
20260507192600 56 36 0.0 0.0 0.00 0.35 0.35 85 1014.3
20260507192102 57 36 0.0 0.0 0.00 0.35 0.35 85 1014.3
20260507191601 57 36 0.0 0.0 0.00 0.35 0.35 84 1014.2
20260507191100 57 36 0.0 0.0 0.00 0.35 0.35 84 1014.1
20260507190557 57 36 0.0 0.0 0.00 0.35 0.35 83 1014.0
20260507190057 57 36 0.0 0.0 0.00 0.35 0.35 83 1014.0
20260507185555 57 36 0.0 0.0 0.00 0.35 0.35 83 1013.9
20260507185055 58 36 0.0 0.0 0.00 0.35 0.35 82 1013.7
20260507184554 58 36 0.0 0.0 0.00 0.35 0.35 82 1013.6
20260507184100 58 36 0.0 2.0 0.00 0.35 0.35 82 1013.6
20260507183554 58 36 0.0 2.0 0.00 0.35 0.35 82 1013.6
20260507183101 58 36 0.0 2.0 0.00 0.35 0.35 82 1013.5
20260507182553 58 36 0.0 2.0 0.00 0.35 0.35 82 1013.5
20260507182054 58 36 0.0 2.0 0.00 0.35 0.35 82 1013.4
20260507181552 58 36 1.0 2.0 0.00 0.35 0.35 81 1013.4
20260507181051 59 36 1.0 2.0 0.00 0.35 0.35 81 1013.4
20260507180552 59 29 1.0 2.0 0.00 0.35 0.35 81 1013.3
20260507180055 59 33 0.0 3.0 0.00 0.35 0.35 81 1013.3
20260507175559 59 34 1.0 5.0 0.00 0.35 0.35 81 1013.3
20260507175052 60 30 2.0 6.0 0.00 0.35 0.35 80 1013.1
20260507174552 60 11 3.0 6.0 0.00 0.35 0.35 81 1013.1
20260507174051 60 24 3.0 6.0 0.00 0.35 0.35 81 1013.0
20260507173550 60 34 3.0 6.0 0.00 0.35 0.35 82 1013.0
20260507173121 60 22 3.0 6.0 0.00 0.35 0.35 82 1013.1
20260507172552 60 355 3.0 6.0 0.00 0.35 0.35 82 1013.0
20260507172050 61 19 2.0 5.0 0.00 0.35 0.35 81 1013.1
20260507171550 61 22 3.0 5.0 0.00 0.35 0.35 81 1013.0
20260507171049 62 22 3.0 6.0 0.00 0.35 0.35 80 1013.0
20260507170550 63 5 2.0 4.0 0.00 0.35 0.35 81 1013.0
20260507170050 63 40 1.0 5.0 0.00 0.35 0.35 80 1013.0
20260507165547 63 23 2.0 5.0 0.00 0.36 0.35 79 1013.0
20260507165049 63 40 0.0 3.0 0.00 0.36 0.35 75 1012.9
20260507164554 64 55 1.0 4.0 0.00 0.36 0.35 74 1012.9
20260507164047 64 80 0.0 5.0 0.00 0.36 0.35 75 1012.8
20260507163546 64 55 2.0 5.0 0.00 0.36 0.35 75 1012.8
20260507163046 64 69 1.0 4.0 0.00 0.36 0.35 76 1012.8
20260507162546 64 65 1.0 5.0 0.00 0.36 0.35 77 1012.9
20260507162045 64 85 2.0 5.0 0.00 0.36 0.35 77 1012.7
20260507161552 64 74 1.0 3.0 0.01 0.36 0.35 77 1012.7
20260507161043 63 75 1.0 4.0 0.01 0.36 0.35 78 1012.6
20260507160544 63 56 1.0 4.0 0.02 0.36 0.35 80 1012.6
20260507160100 62 64 0.0 3.0 0.12 0.36 0.35 82 1012.6
20260507155542 62 59 1.0 4.0 0.30 0.55 0.35 82 1012.5
20260507155045 61 57 0.0 4.0 0.34 0.55 0.35 80 1012.6
20260507154542 61 69 0.0 5.0 0.35 0.55 0.35 80 1012.5
20260507154042 61 80 1.0 9.0 0.35 0.55 0.35 81 1012.4
20260507153542 60 54 3.0 9.0 0.35 0.55 0.35 81 1012.4
20260507153043 59 73 1.0 4.0 0.35 0.55 0.35 85 1012.4
20260507152541 58 73 1.0 6.0 0.35 0.55 0.35 83 1012.4
20260507152041 58 57 0.0 8.0 0.35 0.55 0.35 84 1012.4
20260507151542 58 38 4.0 8.0 0.34 0.54 0.34 84 1012.3
20260507151040 57 37 4.0 8.0 0.34 0.54 0.34 84 1012.3
20260507150545 58 13 2.0 10.0 0.31 0.52 0.31 81 1012.4
20260507150040 59 24 7.0 10.0 0.19 0.39 0.19 79 1012.3
20260507145539 64 360 1.0 5.0 0.03 0.26 0.03 72 1012.4
20260507145041 66 5 0.0 4.0 0.00 0.23 0.00 73 1012.1
20260507144548 66 13 0.0 5.0 0.00 0.23 0.00 71 1011.5
20260507144041 67 137 0.0 5.0 0.00 0.23 0.00 69 1011.1
20260507143538 67 196 1.0 6.0 0.00 0.23 0.00 68 1010.9
20260507143039 67 355 1.0 6.0 0.00 0.23 0.00 67 1010.8
20260507142538 67 319 0.0 4.0 0.00 0.23 0.00 65 1010.8
20260507142044 67 355 1.0 7.0 0.00 0.23 0.00 63 1011.0
20260507141537 67 217 2.0 10.0 0.00 0.23 0.00 64 1011.1
20260507141038 68 216 2.0 10.0 0.00 0.23 0.00 66 1011.1
20260507140538 68 183 3.0 10.0 0.00 0.23 0.00 65 1011.1
20260507140040 68 236 3.0 8.0 0.00 0.23 0.00 63 1011.1
20260507135538 69 188 2.0 10.0 0.00 0.25 0.00 60 1011.1
20260507135037 70 262 3.0 10.0 0.00 0.25 0.00 59 1011.2
20260507134537 70 290 2.0 9.0 0.00 0.25 0.00 61 1011.2
20260507134037 70 170 3.0 14.0 0.00 0.25 0.00 60 1011.1
20260507133537 69 232 5.0 14.0 0.00 0.25 0.00 61 1011.1
20260507133038 70 153 2.0 8.0 0.00 0.25 0.00 60 1011.0
20260507132536 71 194 5.0 9.0 0.00 0.25 0.00 60 1011.1
20260507132036 70 218 2.0 8.0 0.00 0.25 0.00 60 1011.2
20260507131537 70 230 2.0 7.0 0.00 0.25 0.00 62 1011.3
20260507131036 69 219 3.0 9.0 0.00 0.25 0.00 61 1011.4
20260507130535 70 213 3.0 9.0 0.00 0.25 0.00 64 1011.3
20260507130040 71 220 2.0 8.0 0.00 0.25 0.00 58 1011.3
20260507125535 71 233 3.0 8.0 0.00 0.35 0.00 58 1011.3
20260507125036 71 205 2.0 8.0 0.00 0.35 0.00 56 1011.2
20260507124537 71 188 5.0 7.0 0.00 0.35 0.00 53 1011.3
20260507124035 70 115 1.0 6.0 0.00 0.35 0.00 54 1011.2
20260507123535 69 162 2.0 6.0 0.00 0.35 0.00 58 1011.3
20260507123041 69 188 1.0 5.0 0.00 0.35 0.00 56 1011.4
20260507122534 69 205 1.0 8.0 0.00 0.35 0.00 57 1011.4
20260507122037 69 237 1.0 8.0 0.00 0.35 0.00 55 1011.4
20260507121534 70 169 1.0 3.0 0.00 0.35 0.00 58 1011.5
20260507121032 69 222 1.0 3.0 0.00 0.35 0.00 56 1011.5
20260507120535 69 182 0.0 3.0 0.00 0.35 0.00 56 1011.6
20260507120033 70 160 0.0 6.0 0.00 0.35 0.00 57 1011.6
20260507115533 70 251 1.0 6.0 0.00 0.36 0.00 58 1011.5
20260507115033 69 165 2.0 7.0 0.00 0.36 0.00 62 1011.7
20260507114532 70 195 3.0 7.0 0.00 0.36 0.00 59 1011.6
20260507114034 71 180 3.0 7.0 0.00 0.36 0.00 58 1011.7
20260507113532 72 59 1.0 5.0 0.00 0.36 0.00 60 1011.5
20260507113031 71 14 0.0 5.0 0.00 0.36 0.00 55 1011.6
20260507112533 70 99 0.0 7.0 0.00 0.36 0.00 56 1011.8
20260507112030 69 238 1.0 7.0 0.00 0.36 0.00 61 1011.8
20260507111536 70 198 1.0 4.0 0.00 0.36 0.00 60 1011.8
20260507111029 69 59 1.0 4.0 0.00 0.36 0.00 60 1011.9
20260507110529 71 155 1.0 5.0 0.00 0.36 0.00 58 1012.0
20260507110032 71 107 1.0 5.0 0.00 0.36 0.00 60 1012.0
20260507105530 70 134 0.0 2.0 0.00 0.39 0.00 59 1011.9
20260507105028 70 149 0.0 4.0 0.00 0.39 0.00 57 1012.0
20260507104528 70 235 1.0 5.0 0.00 0.39 0.00 57 1012.1
20260507104028 70 191 1.0 5.0 0.00 0.39 0.00 56 1012.1
20260507103526 70 146 0.0 2.0 0.00 0.39 0.00 61 1012.2
20260507103027 69 92 0.0 5.0 0.00 0.39 0.00 64 1012.3
20260507102526 69 281 0.0 5.0 0.00 0.39 0.00 67 1012.4
20260507102026 69 205 1.0 5.0 0.00 0.39 0.00 70 1012.3
20260507101525 70 73 1.0 3.0 0.00 0.39 0.00 63 1012.3
20260507101027 70 182 0.0 6.0 0.00 0.39 0.00 63 1012.3
20260507100524 69 76 2.0 6.0 0.00 0.39 0.00 68 1012.4
20260507100024 68 180 0.0 6.0 0.00 0.39 0.00 69 1012.4
20260507095524 70 194 1.0 6.0 0.00 0.43 0.00 63 1012.3
20260507095024 70 190 0.0 5.0 0.00 0.43 0.00 66 1012.3
20260507094524 68 167 1.0 5.0 0.00 0.43 0.00 69 1012.3
20260507094021 68 118 0.0 4.0 0.00 0.43 0.00 67 1012.2
20260507093521 68 118 1.0 4.0 0.00 0.43 0.00 69 1012.3
20260507093022 67 122 0.0 2.0 0.00 0.43 0.00 69 1012.2
20260507092521 67 122 0.0 3.0 0.00 0.43 0.00 68 1012.2
20260507092021 67 132 0.0 3.0 0.00 0.43 0.00 70 1012.2
20260507091521 67 67 1.0 4.0 0.00 0.43 0.00 73 1012.2
20260507091021 68 92 0.0 5.0 0.00 0.43 0.00 69 1012.2
20260507090522 69 78 0.0 4.0 0.00 0.43 0.00 69 1012.3
20260507090019 68 46 0.0 4.0 0.00 0.43 0.00 68 1012.3
20260507085519 67 53 1.0 3.0 0.00 0.43 0.00 67 1012.2
20260507085018 68 35 0.0 4.0 0.00 0.43 0.00 69 1012.3
20260507084518 68 83 1.0 5.0 0.00 0.43 0.00 69 1012.2
20260507084023 67 62 2.0 5.0 0.00 0.43 0.00 71 1012.3
20260507083515 66 30 0.0 4.0 0.00 0.43 0.00 71 1012.2
20260507083020 66 63 0.0 4.0 0.00 0.43 0.00 70 1012.2
20260507082514 66 88 1.0 5.0 0.00 0.43 0.00 74 1012.1
20260507082014 65 84 0.0 2.0 0.00 0.43 0.00 75 1012.1
20260507081522 65 84 0.0 2.0 0.00 0.43 0.00 73 1012.0
20260507081013 66 84 0.0 4.0 0.00 0.43 0.00 72 1012.0
20260507080518 67 76 1.0 4.0 0.00 0.43 0.00 73 1012.1
20260507080016 67 67 1.0 3.0 0.00 0.43 0.00 73 1012.1
20260507075510 67 60 0.0 2.0 0.00 0.43 0.00 74 1012.0
20260507075009 66 59 0.0 2.0 0.00 0.43 0.00 74 1012.0
20260507074508 66 59 0.0 3.0 0.00 0.43 0.00 74 1012.0
20260507074008 65 57 1.0 4.0 0.00 0.43 0.00 75 1012.1
20260507073505 65 53 1.0 5.0 0.00 0.43 0.00 77 1012.0
20260507073005 65 57 0.0 5.0 0.00 0.43 0.00 75 1012.1
20260507072506 65 102 1.0 4.0 0.00 0.43 0.00 77 1012.1
20260507072004 65 38 1.0 4.0 0.00 0.43 0.00 76 1012.0
20260507071501 64 45 0.0 5.0 0.00 0.43 0.00 79 1012.0
20260507071101 64 57 1.0 5.0 0.00 0.43 0.00 79 1012.0
20260507070600 63 67 2.0 5.0 0.00 0.43 0.00 79 1011.9
20260507070059 63 71 2.0 4.0 0.00 0.43 0.00 81 1011.7
20260507065558 63 65 2.0 4.0 0.00 0.44 0.00 82 1011.8
20260507065057 63 57 1.0 4.0 0.00 0.44 0.00 83 1011.8
20260507064613 63 53 1.0 4.0 0.00 0.44 0.00 83 1011.8
20260507064056 62 19 2.0 5.0 0.00 0.44 0.00 84 1011.8
20260507063555 62 48 2.0 5.0 0.00 0.44 0.00 84 1011.8
20260507063056 62 59 1.0 4.0 0.00 0.44 0.00 86 1011.7
20260507062552 61 38 1.0 5.0 0.00 0.44 0.00 86 1011.7
20260507062051 61 40 2.0 5.0 0.00 0.44 0.00 87 1011.7
20260507061550 60 22 3.0 5.0 0.00 0.44 0.00 88 1011.6
20260507061048 60 37 2.0 6.0 0.00 0.44 0.00 90 1011.5
20260507060548 59 26 2.0 6.0 0.00 0.44 0.00 90 1011.5
20260507060052 59 33 3.0 5.0 0.00 0.44 0.00 90 1011.5
20260507055547 59 30 1.0 5.0 0.00 0.45 0.00 90 1011.5
20260507055046 58 36 1.0 5.0 0.00 0.45 0.00 90 1011.5
20260507054548 59 34 2.0 5.0 0.00 0.45 0.00 89 1011.4
20260507054045 59 59 2.0 5.0 0.00 0.45 0.00 89 1011.3
20260507053544 59 44 2.0 4.0 0.00 0.45 0.00 90 1011.2
20260507053045 59 33 1.0 3.0 0.00 0.45 0.00 90 1011.2
20260507052545 59 40 2.0 5.0 0.00 0.45 0.00 90 1011.1
20260507052041 58 53 1.0 5.0 0.00 0.45 0.00 91 1011.1
20260507051540 58 28 2.0 4.0 0.00 0.45 0.00 91 1011.0
20260507051038 58 45 1.0 3.0 0.00 0.45 0.00 91 1010.9
20260507050538 58 46 1.0 3.0 0.00 0.45 0.00 91 1010.9
20260507050040 58 35 0.0 3.0 0.00 0.45 0.00 92 1010.8
20260507045540 58 35 0.0 3.0 0.00 0.45 0.00 92 1010.8
20260507045036 58 35 0.0 2.0 0.00 0.45 0.00 92 1010.7
20260507044535 58 35 0.0 2.0 0.00 0.45 0.00 92 1010.6
20260507044036 58 35 0.0 2.0 0.00 0.45 0.00 92 1010.5
20260507043538 58 35 1.0 2.0 0.00 0.45 0.00 92 1010.5
20260507043035 58 35 0.0 2.0 0.00 0.45 0.00 92 1010.5
20260507042534 58 35 0.0 3.0 0.00 0.45 0.00 92 1010.6
20260507042034 58 35 1.0 3.0 0.00 0.45 0.00 92 1010.5
20260507041547 57 44 1.0 3.0 0.00 0.45 0.00 92 1010.4
20260507041035 57 62 0.0 2.0 0.00 0.45 0.00 92 1010.4
20260507040534 57 62 0.0 2.0 0.00 0.45 0.00 92 1010.4
20260507040032 57 62 1.0 2.0 0.00 0.45 0.00 92 1010.3
20260507035531 57 62 0.0 2.0 0.00 0.45 0.00 92 1010.3
20260507035031 57 62 0.0 2.0 0.00 0.45 0.00 92 1010.3
20260507034531 57 62 0.0 0.0 0.00 0.45 0.00 92 1010.4
20260507034031 57 62 0.0 0.0 0.00 0.45 0.00 92 1010.4
20260507033533 58 62 0.0 0.0 0.00 0.45 0.00 92 1010.4
20260507033034 58 62 0.0 1.0 0.00 0.45 0.00 92 1010.4
20260507032531 58 62 0.0 2.0 0.00 0.45 0.00 92 1010.4
20260507032030 58 62 0.0 2.0 0.00 0.45 0.00 92 1010.3
20260507031530 58 62 0.0 2.0 0.00 0.45 0.00 92 1010.3
20260507031030 58 62 0.0 2.0 0.00 0.45 0.00 92 1010.4
20260507030530 58 62 0.0 2.0 0.00 0.45 0.00 92 1010.4
20260507030030 58 62 0.0 2.0 0.00 0.45 0.00 92 1010.4
20260507025529 58 62 0.0 2.0 0.00 0.45 0.00 92 1010.4
20260507025029 58 62 0.0 2.0 0.00 0.45 0.00 92 1010.4
20260507024529 58 62 0.0 2.0 0.00 0.45 0.00 92 1010.4
20260507024030 58 62 0.0 0.0 0.00 0.45 0.00 92 1010.4
20260507023529 58 62 0.0 0.0 0.00 0.45 0.00 92 1010.3
20260507023030 58 62 0.0 1.0 0.00 0.45 0.00 92 1010.3
20260507022528 58 62 0.0 1.0 0.00 0.45 0.00 92 1010.3
20260507022029 58 62 0.0 0.0 0.00 0.45 0.00 92 1010.3
20260507021528 58 62 0.0 2.0 0.00 0.45 0.00 92 1010.3
20260507021031 58 62 0.0 2.0 0.00 0.45 0.00 92 1010.3
20260507020528 58 62 0.0 2.0 0.00 0.45 0.00 92 1010.2
20260507020029 58 62 0.0 2.0 0.00 0.45 0.00 92 1010.3
20260507015527 57 62 0.0 2.0 0.00 0.45 0.00 92 1010.2
20260507015031 57 62 0.0 1.0 0.00 0.45 0.00 91 1010.2
20260507014546 58 62 0.0 0.0 0.00 0.45 0.00 91 1010.3
20260507014031 58 62 0.0 1.0 0.00 0.45 0.00 91 1010.3
20260507013527 58 62 0.0 1.0 0.00 0.45 0.00 92 1010.2
20260507013040 58 62 0.0 0.0 0.00 0.45 0.00 92 1010.2
20260507012528 58 62 0.0 2.0 0.00 0.45 0.00 92 1010.2
20260507012030 58 62 0.0 2.0 0.00 0.45 0.00 92 1010.3
20260507011535 58 62 0.0 2.0 0.00 0.45 0.00 92 1010.2
20260507011025 58 62 0.0 2.0 0.00 0.45 0.00 92 1010.3
20260507010525 58 62 0.0 0.0 0.00 0.45 0.00 92 1010.3
20260507010029 58 62 0.0 0.0 0.00 0.45 0.00 92 1010.4
20260507005524 58 62 0.0 0.0 0.00 0.45 0.00 92 1010.3
20260507005024 58 62 0.0 0.0 0.00 0.45 0.00 92 1010.4
20260507004524 58 62 0.0 0.0 0.00 0.45 0.00 92 1010.3
20260507004025 58 62 0.0 0.0 0.00 0.45 0.00 92 1010.3
20260507003524 58 62 0.0 0.0 0.00 0.45 0.00 92 1010.3
20260507003024 58 62 0.0 0.0 0.00 0.45 0.00 92 1010.4
20260507002523 58 62 0.0 0.0 0.00 0.45 0.00 92 1010.4
20260507002023 58 62 0.0 0.0 0.00 0.45 0.00 92 1010.3
20260507001521 58 62 0.0 0.0 0.00 0.45 0.00 92 1010.3
20260507001022 57 62 0.0 0.0 0.00 0.45 0.00 91 1010.4
20260507000526 57 62 0.0 0.0 0.00 0.45 0.00 91 1010.4
20260507000028 57 62 0.0 0.0 0.00 0.45 0.00 91 1010.4
20260506235522 57 62 0.0 0.0 0.00 0.45 0.00 91 1010.5
20260506235021 57 62 0.0 2.0 0.00 0.45 0.00 91 1010.4
20260506234521 57 62 0.0 2.0 0.00 0.45 0.00 91 1010.4
20260506234022 57 62 0.0 0.0 0.00 0.45 0.00 91 1010.4
20260506233520 57 62 0.0 2.0 0.00 0.45 0.00 90 1010.4
20260506233023 57 62 0.0 2.0 0.00 0.45 0.00 90 1010.5
20260506232522 57 62 0.0 2.0 0.00 0.45 0.00 90 1010.5
20260506232019 57 62 0.0 0.0 0.00 0.45 0.00 90 1010.5
20260506231518 57 62 0.0 1.0 0.00 0.45 0.00 90 1010.6
20260506231018 57 62 0.0 2.0 0.00 0.45 0.00 90 1010.5
20260506230518 57 62 0.0 2.0 0.00 0.45 0.00 90 1010.4
20260506230017 57 62 0.0 3.0 0.00 0.45 0.00 90 1010.5
20260506225521 57 62 0.0 3.0 0.00 0.45 0.00 90 1010.6
20260506225017 57 62 0.0 3.0 0.00 0.45 0.00 90 1010.6
20260506224519 57 62 1.0 3.0 0.00 0.45 0.00 90 1010.6
20260506224016 57 61 0.0 2.0 0.00 0.45 0.00 90 1010.6
20260506223517 58 62 0.0 2.0 0.00 0.45 0.00 90 1010.6
20260506223016 58 61 0.0 2.0 0.00 0.45 0.00 90 1010.5
20260506222517 58 65 0.0 3.0 0.00 0.45 0.00 90 1010.5
20260506222014 58 65 1.0 3.0 0.00 0.45 0.00 90 1010.5
20260506221514 58 65 1.0 3.0 0.00 0.45 0.00 90 1010.5
20260506221016 58 65 0.0 2.0 0.00 0.45 0.00 90 1010.4
20260506220514 58 65 0.0 1.0 0.00 0.45 0.00 90 1010.4
20260506220012 58 65 0.0 2.0 0.00 0.45 0.00 90 1010.4
20260506215517 58 65 0.0 4.0 0.00 0.45 0.45 90 1010.4
20260506215012 58 65 1.0 4.0 0.00 0.45 0.45 90 1010.4
20260506214512 58 74 0.0 2.0 0.00 0.45 0.45 90 1010.5
20260506214011 58 74 0.0 2.0 0.00 0.45 0.45 90 1010.5
20260506213511 58 74 0.0 2.0 0.00 0.45 0.45 90 1010.5
20260506213014 58 74 0.0 2.0 0.00 0.45 0.45 91 1010.5
20260506212512 58 109 0.0 2.0 0.00 0.45 0.45 91 1010.5
20260506212012 58 111 0.0 1.0 0.00 0.45 0.45 91 1010.5
20260506211510 58 111 0.0 2.0 0.00 0.45 0.45 91 1010.5
20260506211011 59 111 0.0 2.0 0.00 0.45 0.45 91 1010.6
20260506210511 59 111 0.0 2.0 0.00 0.45 0.45 91 1010.6
20260506210014 59 69 0.0 1.0 0.00 0.45 0.45 91 1010.6
20260506205511 59 69 0.0 2.0 0.00 0.46 0.45 91 1010.6
20260506205010 59 69 0.0 3.0 0.00 0.46 0.45 91 1010.6
20260506204510 59 72 0.0 3.0 0.00 0.46 0.45 91 1010.6